INMARSAT 3-F3

Last updated on Sun Dec 14 2025 00:02:48 GMT+0000 (Coordinated Universal Time)

1 24674U 96070A 25347.33461653 .00000078 00000+0 00000+0 0 9990 2 24674 9.9159 51.4151 0008738 209.1996 174.5388 0.99979420106054
UTC large
Height (km)
Speed (km/s)
/
Latitude / Longitude
Inclination (degrees)
Orbital Period (minutes)
Azimuth
Elevation
Range (km)
Doppler Factor

Next 0 passes for location: London (51.5072 / 0.1276)

Sorry there are no passes over London.